Location: Frankfurt am Main
(50.1109°N, 8.6821°E)
Time: 11:18:55
(UTC+01:00)

Envisat - Visible Passes

Search period start: 21 February 2020 00:00
Search period end: 02 March 2020 00:00
Orbit: 764 x 766 km, 98.1° (Epoch: 20 February)

Date Brightness Start Highest point End Pass type
(mag) Time Alt. Az. Time Alt. Az. Time Alt. Az.
21 Feb 6.5 05:32:30 10° ENE 05:34:17 12° E 05:36:03 10° ESE visible
21 Feb 4.0 18:28:23 10° S 18:33:21 54° W 18:38:21 10° NNW visible
22 Feb 4.7 06:32:31 10° NNE 06:37:16 38° E 06:41:59 10° SSE visible
22 Feb 6.1 19:32:55 10° SW 19:36:09 17° W 19:39:24 10° NW visible
23 Feb 6.0 05:56:29 10° NE 06:00:08 19° E 06:03:46 10° SE visible
23 Feb 5.0 18:54:25 10° SSW 18:58:59 33° W 19:03:34 10° NNW visible
25 Feb 5.2 06:21:22 10° NNE 06:25:53 31° E 06:30:22 10° SSE visible
25 Feb 5.9 19:20:57 10° SW 19:24:42 21° W 19:28:30 10° NW visible
26 Feb 6.3 05:45:38 10° NE 05:48:42 16° E 05:51:45 10° SE visible
26 Feb 4.6 18:42:50 10° SSW 18:47:36 40° W 18:52:24 10° NNW visible
27 Feb 6.4 19:48:26 10° WSW 19:50:33 12° W 19:52:41 10° WNW visible
28 Feb 5.6 06:10:16 10° NE 06:14:29 26° E 06:18:40 10° SSE visible
28 Feb 5.6 19:09:08 10° SSW 19:13:18 25° W 19:17:29 10° NW visible
29 Feb 6.5 05:35:00 10° ENE 05:37:14 13° E 05:39:27 10° ESE visible
29 Feb 4.2 18:31:20 10° S 18:36:15 49° W 18:41:12 10° NNW visible
01 Mar 4.6 06:35:21 10° NNE 06:40:11 41° E 06:44:57 10° SSE visible
01 Mar 6.2 19:36:06 10° WSW 19:39:05 16° W 19:42:06 10° NW visible
